OE5MIL-13 Weather Reports


time (UTC)temp
C
wind
direction
speed
KPH
gust
KPH
rain 1hr
cm
rain 24hr
cm
rain mn
cm
humidity
%
barometer
mb
20260506160445 13 144 20.9 20.9 0.00 0.00 0.00 100
20260506154443 13 149 9.7 22.5 0.00 0.00 0.00 100
20260506152442 13 180 12.9 22.5 0.00 0.00 0.00 100
20260506150441 13 188 0.0 16.1 0.00 0.00 0.00 100
20260506144440 13 158 6.4 30.6 0.00 0.00 0.00 100
20260506142439 15 140 4.8 11.3 0.00 0.00 0.00 100
20260506140438 15 191 8.0 20.9 0.00 0.00 0.00 100
20260506134437 15 175 0.0 17.7 0.00 0.00 0.00 100
20260506130434 13 46 0.0 11.3 0.00 0.00 0.00 100
20260506124433 15 264 11.3 24.1 0.00 0.00 0.00 100
20260506122432 14 116 9.7 19.3 0.00 0.00 0.00 100
20260506120431 13 338 6.4 20.9 0.00 0.00 0.00 100
20260506114430 12 355 0.0 8.0 0.00 0.00 0.00 100
20260506112429 12 9 0.0 11.3 0.00 0.00 0.00 100
20260506110427 13 175 1.6 17.7 0.00 0.00 0.00 100
20260506104426 11 291 9.7 14.5 0.00 0.00 0.00 100
20260506102426 12 206 4.8 9.7 0.00 0.00 0.00 100
20260506100424 9 196 8.0 25.7 0.00 0.00 0.00 100
20260506094423 8 209 4.8 16.1 0.00 0.00 0.00 100
20260506092422 7 268 0.0 8.0 0.00 0.00 0.00 100
20260506090421 6 322 0.0 0.0 0.00 0.00 0.00 100
20260506084419 6 11 0.0 0.0 0.00 0.00 0.00 100
20260506080417 6 291 0.0 6.4 0.00 0.00 0.00 100
20260506072415 6 281 0.0 0.0 0.00 0.00 0.00 100
20260506070414 6 112 0.0 0.0 0.00 0.00 0.00 100
20260506062412 5 112 0.0 0.0 0.00 0.00 0.00 100
20260506060410 5 112 0.0 0.0 0.00 0.00 0.00 100
20260506050407 1 112 0.0 0.0 0.00 0.00 0.00 100
20260506044406 1 118 1.6 6.4 0.00 0.00 0.00 100
20260506042404 0 167 0.0 1.6 0.00 0.00 0.00 100
20260506040403 0 111 0.0 0.0 0.00 0.00 0.00 100
20260506034402 0 111 0.0 0.0 0.00 0.00 0.00 100
20260506032402 0 111 0.0 0.0 0.00 0.00 0.00 100
20260506030400 0 111 0.0 0.0 0.00 0.00 0.00 100
20260506024359 1 111 0.0 0.0 0.00 0.00 0.00 100
20260506022358 1 111 0.0 0.0 0.00 0.00 0.00 100
20260506020356 1 111 0.0 0.0 0.00 0.00 0.00 100
20260506014355 2 111 0.0 0.0 0.00 0.00 0.00 100
20260506012354 2 132 0.0 0.0 0.00 0.00 0.00 100
20260506010353 2 122 0.0 0.0 0.00 0.00 0.00 100
20260506004352 2 122 0.0 0.0 0.00 0.00 0.00 100
20260506002351 2 122 0.0 0.0 0.00 0.00 0.00 100
20260506000349 3 122 0.0 0.0 0.00 0.00 0.00 100
20260505234348 3 122 0.0 1.6 0.00 0.00 0.00 100
20260505232347 3 270 9.7 9.7 0.00 0.00 0.00 100
20260505230346 3 296 3.2 8.0 0.00 0.00 0.00 100
20260505224345 3 279 0.0 6.4 0.00 0.00 0.00 100
20260505222344 5 250 3.2 9.7 0.00 0.00 0.00 100
20260505220343 5 188 4.8 22.5 0.00 0.00 0.00 100
20260505214341 5 316 0.0 0.0 0.00 0.00 0.00 100
20260505212340 5 106 0.0 0.0 0.00 0.00 0.00 100
20260505210418 6 233 0.0 9.7 0.00 0.00 0.00 100
20260505210339 6 233 0.0 9.7 0.00 0.00 0.00 100
20260505204338 6 302 0.0 11.3 0.00 0.00 0.00 100
20260505202337 6 195 1.6 6.4 0.00 0.00 0.00 100
20260505200336 5 90 0.0 0.0 0.00 0.00 0.00 100
20260505194335 6 113 3.2 4.8 0.00 0.00 0.00 100
20260505192333 7 181 0.0 12.9 0.00 0.00 0.00 100
20260505190332 7 296 0.0 16.1 0.00 0.00 0.00 100
20260505184331 7 153 0.0 11.3 0.00 0.00 0.00 100
20260505180329 10 237 0.0 8.0 0.00 0.00 0.00 100
20260505174328 10 317 6.4 12.9 0.00 0.00 0.00 100
20260505172327 11 260 9.7 20.9 0.00 0.00 0.00 100
20260505170325 9 115 1.6 19.3 0.00 0.00 0.00 100
20260505164324 8 248 6.4 20.9 0.00 0.00 0.00 100
20260505162323 10 217 6.4 24.1 0.00 0.00 0.00 100